Wind_Speed
86 87 87 87 86 86 85 85 84 82 81 80 80 80 79 77 75 74 74 75 76 77 77 77 77 77 76 76 75 74 74 75 75 76 76 77 78 78 78 77 77 77
88 88 89 90 91 91 91 90 89 88 86 85 84 84 84 83 81 80 80 79 79 79 80 80 80 81 80 80 79 78 77 77 77 77 77 78 79 80 80 80 80 80
94 92 91 92 92 93 94 95 95 94 93 91 90 89 88 88 87 86 85 84 84 84 83 83 83 84 84 83 83 82 81 80 80 79 79 79 80 81 82 82 82 83
100 99 97 97 97 97 97 99 100 100 99 97 96 94 92 91 91 90 90 89 89 89 89 89 88 88 88 87 86 86 85 84 84 83 82 82 82 83 84 85 85 86
106 105 104 104 104 105 104 104 105 105 105 104 102 100 98 96 94 94 94 94 93 93 94 94 94 93 93 92 92 91 89 89 89 88 87 86 86 86 86 88 88 89
112 112 111 110 110 110 111 111 111 111 110 109 108 106 104 102 100 98 98 98 98 97 97 97 98 98 98 97 97 96 95 94 94 93 91 91 90 90 90 91 92 93
116 116 116 114 112 112 112 113 115 116 116 115 113 111 109 107 106 104 103 103 102 101 100 101 101 102 102 102 101 101 100 99 98 98 97 96 97 97 96 96 96 97
118 119 119 116 114 113 113 114 116 119 121 120 119 117 115 113 112 110 109 108 107 106 104 104 104 105 106 106 105 105 104 103 102 102 102 102 102 103 103 102 102 102
120 120 120 118 115 113 113 114 116 119 122 123 122 122 121 118 116 115 114 113 112 111 109 109 108 109 110 111 110 110 109 108 107 106 106 106 107 107 108 107 106 106
121 120 119 117 116 114 113 114 115 117 120 123 124 124 123 121 119 117 116 116 116 115 115 114 114 114 115 115 114 114 113 112 111 110 109 109 110 111 112 112 111 110
117 118 118 117 116 116 115 115 116 117 118 120 123 124 124 123 122 120 118 117 117 118 118 119 119 119 118 118 118 117 116 116 115 114 114 113 113 114 115 115 115 114
113 115 117 118 118 118 117 117 118 118 118 118 120 122 123 123 123 122 121 119 119 119 120 121 121 121 121 121 121 121 120 120 119 119 119 118 117 116 116 118 118 118
114 115 116 117 118 118 118 118 118 119 119 118 118 119 120 121 122 121 121 121 121 121 121 122 123 124 124 123 123 123 123 123 123 123 123 122 120 119 118 119 119 119
115 115 115 115 115 116 117 117 117 118 119 119 118 117 117 119 120 120 120 121 121 121 121 121 123 124 125 125 126 126 126 126 126 126 126 125 124 122 121 121 121 120
114 114 114 113 113 113 114 115 116 117 118 119 119 118 117 117 118 118 119 119 119 119 119 120 121 123 124 126 127 127 127 127 127 127 128 127 127 125 124 123 122 121
111 112 112 111 111 111 111 112 113 115 117 118 119 119 118 117 117 117 117 117 117 116 117 118 119 120 122 123 125 126 126 126 126 126 126 126 126 124 122 121 119 118
109 109 108 108 108 108 108 109 110 112 115 117 119 119 119 118 118 117 116 116 116 115 115 115 115 116 118 119 120 121 123 124 124 124 123 123 121 119 117 116 115 115
107 107 106 107 106 107 107 108 109 110 112 114 116 118 119 119 118 116 115 115 114 114 113 113 112 113 115 115 116 117 118 120 121 121 121 119 117 115 113 112 112 112
107 106 106 106 107 107 107 108 109 110 111 112 114 115 117 119 118 116 115 115 114 113 112 111 111 111 113 114 115 115 115 116 117 118 118 117 115 113 111 110 109 109
107 107 107 107 107 108 108 109 109 110 111 112 113 113 115 116 117 117 116 116 115 113 112 110 110 110 111 112 113 114 114 114 115 115 115 114 113 112 111 109 109 108
107 108 109 108 108 109 110 110 111 111 111 112 113 113 114 114 115 116 116 117 117 116 114 111 110 109 110 111 112 112 113 114 115 115 114 113 113 111 110 108 108 108
106 108 108 109 109 109 110 111 112 112 112 112 112 113 114 114 114 114 115 116 117 117 116 114 111 110 111 111 111 111 112 113 114 114 114 113 113 111 110 109 108 109
105 107 107 108 109 109 110 111 112 113 113 113 112 112 113 114 113 113 114 115 116 117 116 115 113 112 112 111 111 111 112 113 114 114 114 113 113 112 112 111 111 111
104 106 107 107 108 109 110 110 112 113 113 113 113 112 112 113 112 113 113 114 115 115 114 113 112 112 112 112 111 111 112 113 114 114 114 113 112 112 112 112 112 113
104 105 106 107 108 109 110 111 112 113 114 114 113 113 112 112 111 111 112 112 113 113 113 111 110 110 111 111 110 111 112 113 114 114 114 113 113 112 112 112 112 113
104 104 105 106 107 108 109 111 112 114 115 116 115 114 113 112 112 111 111 111 112 112 111 110 109 109 109 109 109 110 112 113 113 113 113 113 112 112 112 112 112 111
Wind_Direction
267 266 265 264 264 264 264 264 265 265 266 267 267 266 266 266 267 267 267 268 268 268 268 268 268 268 268 267 267 267 267 268 268 269 269 270 270 271 271 272 272 272
267 266 265 265 264 264 264 263 263 263 264 265 265 265 265 265 265 265 266 266 267 268 269 269 269 269 269 268 267 267 267 267 267 268 269 270 271 272 272 273 273 273
266 264 263 263 264 264 264 264 263 262 262 263 263 263 264 264 264 265 265 265 266 267 267 268 269 269 269 269 268 268 267 267 267 267 268 269 270 270 271 272 272 272
266 265 264 263 263 263 263 263 263 262 262 261 261 261 261 262 263 264 264 264 265 266 266 266 267 267 267 267 267 267 267 267 267 267 266 267 268 269 270 270 271 271
266 266 266 266 265 264 262 262 262 262 261 261 260 260 260 260 261 262 263 263 263 264 265 265 265 265 265 265 266 266 266 267 267 267 266 267 267 268 269 269 270 270
265 266 266 266 266 265 263 262 261 261 260 260 260 259 259 259 259 259 260 261 261 261 262 263 263 263 263 264 264 265 265 266 266 266 266 266 267 268 268 268 268 269
264 265 265 265 265 264 262 262 262 261 260 259 259 259 259 258 258 258 258 259 259 260 260 261 262 262 263 263 264 264 264 264 265 265 265 266 267 268 268 267 267 267
263 264 264 264 263 262 261 261 261 261 261 260 259 259 259 259 258 258 258 258 258 258 259 260 261 262 262 263 263 263 263 263 263 264 264 265 266 267 268 268 267 267
262 262 263 263 263 262 261 261 260 260 260 260 260 260 260 259 259 258 257 257 257 257 258 259 259 260 261 261 261 262 262 262 263 263 264 264 265 266 267 267 267 267
262 263 263 263 262 262 262 262 261 261 260 259 259 259 260 260 259 258 257 256 256 256 257 257 258 258 259 260 260 261 261 262 262 263 264 264 265 266 266 267 267 267
261 263 263 263 262 262 262 262 262 261 260 260 259 259 259 259 259 258 257 256 256 256 255 256 256 256 257 258 259 260 261 261 262 262 263 264 265 266 266 267 267 267
261 261 262 263 263 263 262 262 262 262 261 260 259 258 258 258 258 258 258 257 256 256 255 255 255 255 256 257 258 259 260 260 261 262 262 263 264 265 265 266 266 267
262 261 261 261 263 263 263 262 262 262 261 260 259 258 258 258 258 258 258 258 257 257 256 256 255 255 255 256 256 257 258 259 259 260 261 262 262 263 264 265 265 266
263 262 262 261 260 261 262 263 262 261 260 259 259 258 258 258 258 258 258 258 258 258 257 257 256 256 256 256 256 256 257 257 258 259 260 261 261 262 263 263 264 265
263 262 262 261 260 259 259 260 260 260 260 259 258 258 258 257 257 258 258 258 258 258 258 258 257 257 257 257 256 256 257 257 258 258 259 260 261 262 262 263 263 264
262 262 261 261 261 260 258 257 257 257 258 258 258 258 257 257 257 257 257 257 257 257 257 257 258 258 258 258 258 257 257 257 258 258 259 260 261 262 262 262 262 263
261 261 261 260 260 259 258 257 256 255 255 256 257 257 257 257 257 257 257 257 256 256 256 256 257 258 259 259 259 259 258 258 258 258 259 260 261 261 262 262 262 262
261 260 260 259 258 258 257 257 256 256 255 255 255 255 256 257 257 257 257 257 256 256 256 256 256 256 257 257 258 259 259 259 259 259 259 259 259 260 260 261 261 261
259 259 258 258 258 257 257 256 256 256 256 255 254 254 254 255 255 256 256 257 256 256 256 256 255 255 255 256 256 257 258 258 259 259 259 258 258 258 259 260 260 261
258 258 258 257 257 257 257 256 256 256 256 256 255 255 254 254 254 254 255 255 255 255 255 255 255 255 255 255 256 256 257 257 258 258 258 258 258 257 258 258 259 260
256 257 257 257 256 256 257 256 256 256 256 256 256 256 255 254 254 254 254 254 254 254 254 254 254 254 254 254 255 256 257 257 258 258 258 258 258 258 257 257 258 258
255 256 256 256 256 256 256 256 256 256 256 256 256 256 256 255 255 254 254 254 254 254 254 253 253 253 253 254 254 255 256 257 258 258 259 259 259 259 259 258 258 258
254 255 255 255 256 256 255 256 256 256 256 256 256 256 256 256 256 255 255 255 255 255 254 254 253 252 252 253 253 254 255 255 256 257 258 259 260 260 260 260 259 259
254 254 254 254 255 255 256 256 256 256 256 256 256 256 256 256 256 256 256 256 256 256 255 255 254 253 253 253 253 254 254 255 256 257 257 258 259 260 260 260 260 260
254 253 253 253 253 253 254 255 255 256 256 257 257 257 257 257 257 257 257 257 257 257 257 256 256 255 254 254 254 255 255 256 256 257 258 259 259 260 261 261 261 262
255 254 253 253 252 252 252 253 254 254 255 256 257 257 257 257 257 257 257 257 257 257 257 257 257 256 256 256 256 256 256 256 257 258 259 259 260 261 261 262 263 263
Height
10590 10590 10591 10591 10590 10590 10590 10590 10590 10592 10593 10594 10595 10595 10595 10596 10596 10598 10598 10598 10599 10600 10600 10600 10600 10599 10599 10599 10599 10600 10600 10599 10599 10599 10600 10600 10599 10600 10600 10599 10599 10599
10576 10576 10576 10575 10575 10575 10576 10577 10577 10579 10580 10580 10581 10581 10581 10583 10584 10585 10585 10586 10587 10588 10588 10589 10589 10589 10589 10589 10589 10589 10589 10588 10588 10588 10588 10589 10588 10588 10587 10587 10588 10589
10562 10562 10561 10561 10561 10561 10562 10563 10564 10565 10565 10565 10566 10566 10567 10568 10570 10571 10572 10573 10574 10575 10576 10576 10577 10577 10577 10577 10577 10578 10578 10577 10576 10576 10577 10577 10576 10576 10576 10576 10577 10577
10546 10546 10546 10546 10547 10548 10548 10548 10548 10549 10550 10551 10551 10552 10553 10555 10556 10557 10558 10559 10561 10561 10562 10562 10563 10564 10564 10564 10565 10565 10565 10564 10564 10564 10565 10565 10564 10563 10564 10564 10565 10565
10530 10530 10531 10531 10532 10532 10532 10533 10532 10532 10533 10535 10536 10536 10538 10540 10542 10543 10544 10545 10545 10546 10547 10548 10548 10549 10550 10551 10551 10552 10553 10552 10552 10552 10552 10553 10551 10551 10552 10552 10553 10553
10513 10513 10514 10515 10515 10515 10515 10515 10515 10514 10515 10517 10519 10521 10524 10526 10527 10528 10529 10529 10530 10531 10532 10533 10534 10534 10535 10536 10537 10539 10539 10539 10539 10539 10540 10540 10539 10539 10540 10540 10540 10540
10495 10496 10496 10497 10498 10498 10498 10498 10497 10496 10496 10497 10501 10505 10508 10510 10512 10513 10513 10514 10515 10516 10517 10518 10519 10520 10521 10521 10523 10524 10525 10525 10526 10526 10527 10527 10526 10526 10527 10526 10527 10527
10477 10477 10477 10478 10480 10481 10481 10481 10479 10478 10477 10479 10483 10485 10488 10492 10495 10497 10498 10498 10500 10501 10503 10504 10505 10505 10505 10506 10507 10508 10509 10511 10512 10512 10513 10514 10514 10513 10512 10512 10513 10514
10457 10458 10458 10458 10461 10462 10463 10463 10462 10461 10460 10462 10465 10466 10469 10473 10476 10478 10480 10482 10484 10486 10488 10489 10489 10489 10489 10489 10491 10492 10494 10496 10497 10498 10499 10500 10500 10499 10498 10498 10499 10500
10436 10437 10438 10440 10441 10443 10444 10444 10444 10444 10444 10446 10448 10449 10451 10453 10455 10458 10461 10464 10467 10469 10471 10471 10471 10471 10472 10473 10475 10477 10480 10481 10483 10484 10484 10485 10485 10484 10484 10484 10485 10486
10421 10418 10418 10419 10421 10423 10425 10425 10425 10426 10428 10430 10431 10432 10433 10434 10436 10439 10442 10446 10448 10450 10451 10453 10453 10454 10456 10459 10461 10462 10464 10466 10468 10469 10470 10470 10470 10469 10469 10468 10469 10470
10407 10404 10401 10400 10401 10403 10405 10406 10407 10408 10410 10412 10414 10415 10416 10417 10418 10421 10424 10427 10429 10429 10432 10434 10436 10437 10440 10443 10445 10447 10448 10450 10452 10453 10453 10454 10455 10455 10454 10453 10453 10454
10389 10389 10388 10386 10384 10384 10385 10387 10389 10389 10391 10393 10395 10397 10399 10400 10401 10403 10405 10408 10410 10412 10414 10416 10417 10419 10423 10426 10428 10430 10432 10433 10434 10435 10435 10436 10439 10440 10440 10439 10439 10439
10369 10369 10370 10370 10370 10369 10368 10368 10369 10371 10373 10375 10376 10379 10381 10382 10384 10386 10387 10390 10392 10395 10398 10399 10399 10402 10405 10407 10410 10411 10413 10415 10416 10417 10418 10420 10422 10425 10426 10426 10425 10426
10349 10349 10349 10350 10352 10353 10352 10352 10352 10352 10353 10356 10358 10361 10362 10364 10366 10368 10370 10373 10376 10378 10380 10381 10382 10385 10387 10389 10391 10393 10394 10397 10399 10400 10401 10403 10406 10409 10410 10412 10412 10412
10328 10329 10330 10331 10332 10333 10334 10335 10336 10336 10336 10337 10339 10341 10343 10345 10348 10350 10353 10356 10359 10361 10363 10364 10365 10368 10369 10370 10371 10374 10376 10379 10382 10384 10385 10386 10388 10391 10394 10396 10397 10397
10308 10310 10311 10312 10313 10314 10315 10317 10318 10319 10320 10320 10321 10322 10324 10326 10329 10333 10336 10338 10340 10344 10347 10350 10352 10352 10351 10351 10353 10355 10358 10360 10363 10366 10368 10369 10371 10374 10377 10379 10380 10380
10287 10290 10291 10292 10293 10295 10297 10298 10300 10301 10303 10304 10305 10306 10307 10308 10311 10314 10317 10319 10322 10326 10330 10334 10337 10336 10335 10335 10336 10337 10339 10341 10344 10346 10350 10353 10356 10359 10361 10362 10363 10363
10268 10270 10272 10272 10274 10276 10278 10280 10281 10283 10284 10285 10288 10289 10290 10292 10295 10296 10298 10300 10303 10308 10312 10316 10319 10320 10320 10320 10321 10322 10323 10323 10324 10327 10330 10335 10340 10343 10344 10346 10347 10348
10249 10251 10253 10254 10255 10257 10259 10261 10263 10265 10266 10267 10269 10272 10274 10276 10278 10280 10282 10283 10285 10289 10293 10297 10301 10303 10304 10304 10305 10306 10307 10307 10307 10308 10311 10316 10321 10326 10329 10332 10333 10333
10232 10232 10234 10236 10238 10239 10241 10242 10244 10247 10249 10250 10253 10255 10256 10259 10261 10264 10266 10267 10269 10271 10275 10280 10284 10285 10285 10287 10289 10289 10290 10290 10290 10291 10294 10298 10302 10308 10313 10316 10317 10317
10215 10216 10217 10218 10220 10222 10224 10224 10226 10229 10230 10232 10236 10237 10238 10241 10244 10247 10250 10252 10253 10255 10259 10264 10268 10267 10268 10271 10273 10274 10274 10274 10274 10276 10279 10282 10286 10290 10295 10297 10299 10299
10198 10199 10201 10201 10201 10203 10206 10207 10208 10210 10212 10214 10218 10220 10221 10224 10227 10230 10233 10236 10237 10239 10243 10248 10251 10251 10252 10254 10256 10258 10259 10259 10260 10261 10264 10267 10271 10273 10276 10278 10280 10281
10180 10181 10183 10185 10185 10185 10187 10189 10190 10191 10193 10195 10199 10203 10205 10207 10210 10213 10216 10218 10220 10223 10226 10231 10235 10236 10236 10238 10241 10243 10243 10243 10245 10247 10250 10254 10256 10258 10259 10261 10263 10264
10161 10162 10164 10167 10169 10169 10169 10170 10171 10172 10174 10177 10180 10185 10188 10190 10193 10196 10199 10201 10203 10206 10209 10213 10218 10220 10220 10223 10226 10227 10228 10228 10229 10233 10237 10239 10242 10243 10244 10246 10247 10248
10140 10142 10146 10148 10150 10153 10154 10154 10154 10155 10156 10158 10161 10166 10170 10174 10176 10179 10182 10184 10185 10189 10192 10196 10200 10203 10204 10207 10210 10211 10212 10213 10215 10219 10222 10224 10227 10228 10229 10231 10232 10233